Location: *
(45.9500°N, 9.0833°E)
Time: 19:40:08
(UTC+00:00)

Vanguard 2 Rocket - Pass Details

Date: 18 June 2021
Orbit: 555 x 3325 km, 32.9° (Epoch: 30 July)

Event Time Altitude Azimuth Distance (km) Brightness Sun altitude
Rises 23:08:30 0° 269° (W) 6,720 11.4 -20.5°
Reaches altitude 10° 23:14:02 10° 262° (W) 5,309 10.7 -20.6°
Maximum altitude 23:26:05 34° 206° (SSW) 2,721 8.8 -20.6°
Enters shadow 23:28:39 30° 181° (S) 2,630 8.6 -20.6°
Drops below altitude 10° 23:33:40 10° 146° (SE) 3,301 - -20.6°
Sets 23:36:15 0° 136° (SE) 3,961 - -20.6°
